Temperature
14 14 14 14 14 14 14 14 14 14 14 14 14 13 13 13 13 13 13 13 13 13 13 13 13 14 14 14 14 14 14 14 14 13 13 13 13 13 13 13 13 13 13
12 13 13 13 13 13 13 13 14 14 14 13 13 13 12 12 12 12 12 12 12 13 13 13 13 13 13 14 14 14 14 14 14 13 12 12 12 12 12 12 12 12 12
11 11 11 12 12 12 12 13 13 13 13 13 13 12 12 12 12 12 12 12 12 12 12 13 13 13 13 13 13 13 13 13 13 13 12 12 12 12 12 12 12 12 12
10 10 10 11 11 11 11 12 12 12 12 12 12 12 12 12 12 12 12 12 12 12 12 12 12 12 13 13 13 13 13 12 12 12 12 11 11 11 12 12 11 11 11
9 9 10 10 10 10 10 11 11 11 11 11 12 12 12 12 12 12 11 11 11 11 12 12 12 12 12 12 12 12 12 12 12 11 11 11 11 11 12 12 11 11 11
9 9 9 9 9 9 9 10 10 10 10 11 11 11 11 11 12 12 11 11 11 11 11 11 11 11 11 11 11 11 12 12 11 11 11 11 11 11 11 12 12 12 11
9 9 9 9 9 9 9 9 9 9 10 10 10 11 11 11 11 11 11 11 11 11 11 11 11 11 11 11 11 11 11 11 11 11 11 11 11 11 11 11 11 12 11
9 9 9 9 9 9 9 9 9 9 9 9 10 10 10 11 11 11 11 11 11 10 11 11 11 10 10 10 10 10 10 10 10 11 10 10 10 10 10 11 11 11 10
9 9 9 9 9 9 9 9 9 9 9 9 9 9 10 10 11 11 11 10 10 10 10 10 10 10 10 10 10 10 10 10 10 10 11 11 10 10 10 10 11 11 11
9 9 9 8 8 8 8 8 8 8 8 8 9 9 9 10 10 10 11 10 10 10 10 10 10 10 10 10 10 10 10 9 10 10 10 10 9 9 10 10 11 12 11
8 8 8 8 8 8 8 8 8 8 8 8 8 8 9 9 9 10 10 10 11 11 10 10 10 10 10 10 10 10 10 10 9 9 9 9 9 9 9 9 9 10 10
8 7 7 7 7 8 8 8 8 7 8 8 8 8 8 9 9 9 10 10 10 11 11 10 10 10 10 10 10 10 10 10 10 10 10 10 9 9 8 8 8 8 8
7 7 7 7 7 7 7 7 8 8 8 8 8 8 8 8 8 9 9 10 10 10 11 10 10 10 10 10 10 10 10 10 10 10 10 9 9 8 8 8 8 8 7
7 6 6 7 7 7 7 7 8 8 8 8 8 7 7 7 8 8 9 9 10 10 10 10 10 10 10 10 10 9 10 10 10 10 9 9 8 8 8 9 9 9 8
6 6 6 6 7 7 7 7 7 7 8 7 7 7 7 7 8 8 9 9 9 10 10 9 9 9 9 9 9 10 10 9 10 9 9 9 9 9 9 9 9 9 9
5 5 6 6 6 6 6 7 7 7 7 7 7 7 6 7 7 8 8 9 9 10 10 10 10 10 10 10 10 10 10 9 9 9 9 9 9 9 9 9 9 9 9
5 5 5 5 5 5 6 6 6 7 7 6 6 6 6 7 7 7 8 9 9 10 10 10 10 10 11 10 10 10 10 10 9 10 9 9 9 9 9 9 9 9 9
4 4 4 4 5 5 5 6 6 6 6 6 6 6 6 6 7 7 8 9 9 9 10 11 11 11 11 11 10 10 10 9 9 9 9 9 9 9 9 9 9 9 9
4 4 4 4 4 5 5 5 6 6 6 6 6 6 6 7 7 7 8 8 9 9 11 11 11 11 11 11 10 10 10 9 9 9 9 9 9 9 9 9 9 8 9
4 4 4 4 4 4 5 5 5 6 6 6 6 6 6 6 7 7 7 9 9 10 11 11 11 11 11 11 10 10 10 9 9 9 9 9 9 9 9 9 9 9 9
4 4 4 4 4 4 5 5 5 6 6 6 6 6 6 6 7 7 8 9 10 10 11 11 11 11 11 10 10 10 10 10 9 10 10 9 9 9 10 10 9 9 9
4 4 4 4 4 4 5 5 5 6 6 6 6 6 6 7 7 8 8 9 10 10 11 11 11 11 11 10 10 10 10 10 10 10 10 10 9 10 10 10 10 10 9
4 4 4 4 4 4 5 5 5 6 6 6 6 6 7 7 8 8 9 10 10 10 11 11 11 11 11 10 10 10 10 10 10 10 10 10 10 10 10 10 10 9 10
4 4 4 5 5 5 5 5 6 6 6 6 7 7 7 8 8 9 10 10 10 11 10 10 11 11 11 10 10 10 11 10 10 10 10 10 10 10 10 10 10 10 10
4 4 5 5 5 5 6 6 6 6 7 7 7 7 8 8 9 9 10 10 10 10 10 10 11 11 10 10 10 11 11 10 10 10 10 10 10 10 10 10 10 10 10
5 5 5 5 5 6 6 6 7 7 7 7 8 8 9 9 9 10 10 10 10 10 10 10 11 11 10 10 10 10 10 10 10 10 10 10 10 10 10 10 10 10 10
Wind_Speed
11 10 10 10 10 10 10 11 11 10 10 10 10 11 11 11 11 11 12 12 12 11 11 11 12 11 9 8 8 8 7 7 5 4 4 5 6 7 7 8 10 10 13
11 11 12 12 12 12 12 12 11 12 11 10 10 11 11 11 10 11 11 10 10 10 9 9 10 8 8 7 6 6 6 6 8 8 5 5 6 8 8 8 8 10 12
11 11 11 12 12 13 14 13 12 12 12 11 10 10 10 10 10 9 9 8 7 7 6 6 6 5 5 4 4 5 5 6 7 9 6 4 5 7 9 9 10 8 11
11 10 11 11 12 12 13 13 13 12 12 12 11 10 10 9 9 8 7 6 5 4 4 3 2 1 3 4 4 6 7 9 9 10 8 6 6 6 8 9 9 8 8
11 11 11 11 11 12 12 13 13 12 13 12 12 11 10 9 7 6 5 4 3 3 3 4 4 5 6 5 6 8 9 9 9 9 9 8 7 7 7 8 9 9 8
13 13 13 12 12 12 12 13 12 12 12 12 13 12 11 9 2 1 5 3 1 1 3 5 6 9 12 13 13 11 9 9 9 8 8 9 8 7 7 7 8 8 7
15 16 15 14 14 13 13 13 13 12 12 12 12 12 12 8 6 5 5 4 3 3 4 6 7 9 10 11 13 14 13 11 7 6 9 10 9 8 7 7 6 7 7
18 18 17 16 16 15 14 13 12 11 11 11 11 12 12 9 10 9 7 6 4 4 5 8 9 9 10 11 12 13 12 11 9 9 10 9 9 7 7 8 10 9 8
19 18 18 17 17 16 16 15 13 12 11 11 11 11 12 9 12 12 10 8 7 7 7 8 10 10 10 11 14 14 13 11 14 16 14 13 12 9 3 6 7 7 8
19 19 18 17 18 18 17 16 14 12 12 11 10 10 11 10 11 14 13 9 9 9 8 8 9 11 10 8 13 14 14 13 12 13 12 11 11 9 6 3 4 5 7
20 19 19 18 18 18 17 16 14 13 12 11 11 9 9 9 9 15 15 10 11 11 11 10 9 11 9 5 8 11 13 13 12 12 11 10 9 8 8 8 7 5 6
20 20 20 19 18 17 16 15 15 14 13 11 9 9 7 7 8 12 15 12 8 11 11 11 11 12 9 6 7 13 13 11 10 9 9 9 8 9 9 10 10 10 10
22 21 20 19 18 17 17 17 15 14 12 10 8 6 5 5 7 11 14 12 8 8 9 13 15 15 13 8 13 14 12 8 9 9 9 9 9 10 9 9 10 9 10
22 21 19 19 18 18 15 15 14 13 12 10 8 6 5 5 7 9 11 10 10 10 12 15 15 11 9 12 12 11 9 8 8 8 9 9 9 8 8 8 8 8 8
21 20 19 18 18 16 16 14 15 13 10 10 9 6 5 6 8 12 13 14 15 14 15 13 12 12 12 12 12 10 9 9 8 9 9 9 9 8 7 6 5 6 6
18 18 16 15 13 14 14 14 14 15 11 12 11 9 7 8 8 11 14 14 15 19 17 14 14 13 13 13 12 11 10 10 10 10 9 9 9 8 8 7 6 6 6
17 16 14 14 13 13 14 13 12 12 14 15 15 14 13 11 11 13 15 16 19 20 15 14 14 13 13 12 12 11 11 10 10 10 9 9 9 8 8 7 7 6 6
17 17 15 13 13 14 13 13 12 12 10 9 11 14 14 13 14 16 17 17 15 16 15 14 14 13 13 12 12 11 11 11 10 10 9 9 9 8 8 7 6 6 6
16 13 12 12 12 12 13 13 12 12 11 9 7 7 10 12 15 18 20 17 18 17 15 14 14 14 13 13 12 12 12 11 11 10 10 9 9 8 8 7 7 5 3
13 16 14 11 11 12 12 12 11 10 10 9 8 7 7 9 10 14 16 17 17 17 15 14 14 14 14 13 12 12 12 12 12 10 10 10 9 8 8 8 8 7 5
10 11 14 12 11 11 11 10 10 9 8 8 8 9 12 12 15 18 19 18 17 17 15 14 15 15 14 13 13 13 14 13 12 11 11 10 9 8 8 7 7 6 5
8 8 9 9 9 9 9 9 9 9 9 9 7 9 15 14 16 18 19 17 17 16 15 14 14 14 14 14 14 14 14 13 13 12 12 11 10 9 8 7 7 6 5
7 8 7 7 7 8 8 8 8 8 8 8 8 10 12 14 17 19 19 17 16 15 15 14 14 15 15 14 14 14 14 14 13 13 12 12 11 10 9 8 8 7 7
5 6 6 6 6 6 7 7 7 7 8 8 10 11 13 15 17 18 18 16 15 15 15 15 15 17 19 16 14 14 14 14 15 14 15 12 12 10 9 9 9 9 9
3 4 4 5 5 5 6 6 6 7 7 9 10 11 14 15 16 17 17 16 17 16 16 16 14 16 20 20 17 15 13 12 10 12 14 13 12 11 11 10 10 10 10
2 3 3 3 3 4 4 5 6 7 8 10 10 13 15 15 15 16 16 16 16 15 16 15 17 18 19 19 19 15 14 14 12 9 11 12 13 12 12 11 13 12 12
Wind_Direction
360 351 342 333 323 306 291 283 278 275 276 279 285 291 295 299 303 301 299 296 288 283 276 266 259 256 250 242 233 228 221 210 181 139 124 124 126 122 120 119 120 109 94
350 346 344 337 330 319 307 295 284 274 270 272 279 285 290 297 303 304 304 304 297 290 285 276 266 255 243 235 224 213 201 186 161 140 130 126 120 119 116 113 109 103 99
338 337 338 336 332 324 315 304 291 278 270 268 271 278 286 292 297 302 305 310 312 310 305 292 281 257 230 210 194 173 157 144 135 134 128 117 120 122 119 112 106 109 107
320 318 320 323 321 318 316 309 298 286 274 267 264 269 276 282 287 295 301 312 325 332 339 336 317 247 171 152 142 136 132 128 128 127 126 127 128 139 136 128 120 111 107
301 300 300 304 309 312 315 313 305 292 281 273 266 264 265 267 273 287 294 302 324 355 21 30 47 75 91 113 125 126 129 128 129 132 135 137 141 152 142 133 123 118 107
284 284 285 289 295 301 307 309 307 299 289 279 268 263 259 257 145 301 284 263 247 74 75 74 79 85 87 87 88 92 106 127 134 138 139 136 137 139 133 141 143 137 119
283 282 281 282 284 288 295 301 304 303 296 286 275 264 256 241 174 200 252 252 198 148 120 110 99 95 97 103 95 89 80 74 90 117 123 125 127 128 137 133 109 105 98
288 286 285 284 284 285 286 291 298 301 298 290 282 272 259 235 184 192 214 218 175 147 135 125 120 119 116 117 114 105 95 79 82 98 104 103 104 102 105 110 115 117 114
289 288 288 287 286 284 284 285 289 294 296 292 282 276 264 239 191 190 207 195 166 152 144 137 133 129 125 129 121 114 108 97 77 77 80 84 71 59 73 147 154 144 123
290 290 289 287 284 282 282 281 280 283 286 287 280 274 266 251 202 192 207 199 168 154 144 140 138 136 141 143 134 130 126 123 119 111 106 112 104 89 53 76 135 138 132
289 288 285 283 281 278 276 274 272 273 280 284 280 271 260 253 214 196 206 208 176 166 160 158 147 139 149 151 150 138 134 135 133 131 126 121 114 106 93 73 51 62 90
286 283 281 279 277 276 274 272 268 267 271 274 272 269 255 239 227 205 204 221 211 173 167 159 146 148 149 156 139 127 140 154 143 140 134 128 120 107 94 85 76 73 74
282 280 279 277 274 272 270 268 264 258 259 267 263 264 258 237 216 198 195 207 221 184 154 123 135 145 145 134 132 144 165 163 148 144 135 125 113 110 113 112 107 105 98
279 277 274 272 270 268 265 262 260 258 256 259 257 259 256 239 216 194 189 187 173 152 132 124 135 155 149 127 148 167 177 155 151 140 131 128 130 142 144 139 135 133 120
279 275 273 268 266 267 264 258 258 258 257 260 260 250 244 241 222 201 190 184 182 164 150 151 156 157 156 158 164 164 155 151 150 141 141 145 146 142 134 125 124 124 116
277 274 271 267 264 262 262 259 240 239 229 219 232 238 239 233 233 210 199 179 161 152 162 165 166 168 166 164 163 160 160 158 153 152 153 152 148 144 140 141 138 123 112
273 272 269 266 263 259 256 255 255 237 222 220 219 218 225 222 212 198 182 159 154 162 175 171 171 171 168 165 164 164 162 154 156 158 156 153 149 148 147 144 137 128 119
271 268 263 259 256 255 254 251 250 250 242 233 216 210 212 211 196 181 163 153 165 181 184 174 174 171 168 166 165 163 157 156 163 160 156 156 155 154 151 150 144 137 131
270 263 258 255 250 249 249 246 244 244 245 240 220 200 201 190 174 167 165 176 177 187 187 176 174 172 170 167 164 161 159 161 163 162 158 160 161 159 156 152 136 126 156
267 259 254 251 247 245 243 240 237 237 237 230 217 192 170 163 166 170 184 187 182 187 186 177 175 173 172 168 166 165 164 163 165 171 163 167 167 165 161 160 155 165 169
264 255 245 244 240 238 237 235 235 234 231 227 210 182 172 174 174 178 186 189 184 186 185 179 175 175 174 170 171 173 171 170 174 176 169 173 174 173 173 172 173 177 171
259 251 239 236 234 231 232 232 231 230 228 221 196 179 173 177 177 179 185 188 184 185 183 180 178 178 177 177 176 177 178 177 178 179 177 178 179 183 185 187 190 192 194
252 245 236 230 229 222 227 230 231 228 221 199 184 171 175 178 177 179 183 184 181 181 181 182 182 180 178 178 180 183 184 183 182 182 184 185 187 192 197 200 205 214 220
250 237 229 225 221 221 223 225 222 210 196 183 172 170 175 176 175 178 181 180 179 179 179 182 186 184 179 180 184 189 190 186 185 187 193 197 199 203 208 213 221 227 232
246 226 223 222 218 216 215 213 205 186 179 171 169 171 171 172 173 177 179 178 178 180 180 183 187 186 184 187 190 193 174 167 187 196 194 206 214 218 224 228 233 239 243
251 231 220 218 211 206 205 203 185 171 165 164 167 167 167 169 171 175 176 176 178 179 181 185 189 188 188 192 196 185 158 164 184 212 218 212 219 225 230 237 243 245 251
Height
1497 1494 1492 1490 1488 1486 1484 1482 1480 1477 1475 1472 1470 1467 1464 1460 1457 1453 1449 1446 1442 1440 1438 1436 1435 1435 1435 1436 1438 1439 1441 1444 1447 1449 1451 1454 1456 1459 1461 1463 1464 1466 1466
1494 1491 1488 1485 1483 1480 1478 1476 1474 1471 1469 1467 1465 1463 1460 1457 1453 1450 1446 1442 1439 1436 1434 1432 1431 1431 1431 1432 1433 1435 1438 1441 1444 1446 1449 1452 1455 1457 1460 1462 1464 1466 1467
1490 1486 1483 1481 1478 1474 1472 1470 1468 1465 1463 1462 1460 1458 1456 1453 1450 1447 1443 1440 1436 1433 1431 1429 1427 1427 1427 1429 1430 1432 1435 1438 1442 1445 1448 1451 1454 1457 1460 1462 1464 1466 1468
1485 1482 1479 1475 1473 1470 1467 1464 1461 1459 1457 1456 1454 1453 1451 1449 1447 1444 1441 1438 1435 1432 1429 1427 1425 1425 1425 1427 1429 1431 1433 1437 1440 1444 1448 1451 1454 1458 1461 1463 1465 1467 1469
1479 1477 1474 1471 1468 1465 1462 1459 1455 1453 1451 1449 1448 1447 1446 1445 1444 1442 1439 1437 1434 1431 1429 1427 1425 1424 1425 1426 1428 1431 1433 1436 1440 1444 1448 1452 1455 1459 1462 1464 1466 1468 1470
1473 1470 1468 1465 1462 1460 1457 1453 1450 1447 1444 1443 1442 1442 1442 1442 1440 1438 1437 1436 1434 1432 1429 1428 1426 1425 1426 1427 1429 1432 1435 1438 1442 1445 1449 1453 1456 1459 1462 1465 1467 1469 1471
1467 1464 1461 1459 1456 1454 1451 1448 1445 1441 1439 1436 1435 1435 1436 1436 1435 1435 1434 1434 1433 1432 1430 1429 1429 1428 1429 1429 1432 1435 1438 1442 1445 1448 1452 1455 1458 1460 1463 1465 1467 1469 1471
1460 1457 1455 1452 1450 1448 1445 1442 1439 1436 1433 1431 1429 1429 1429 1430 1431 1431 1432 1432 1432 1431 1431 1431 1431 1431 1432 1433 1435 1438 1441 1444 1448 1451 1454 1457 1459 1461 1463 1465 1466 1468 1470
1452 1449 1447 1445 1443 1440 1438 1436 1433 1431 1428 1425 1423 1422 1422 1424 1426 1427 1429 1430 1430 1431 1431 1432 1433 1434 1436 1437 1439 1441 1444 1448 1451 1454 1456 1458 1460 1462 1464 1467 1469 1470 1472
1444 1441 1439 1437 1434 1432 1430 1428 1426 1424 1422 1420 1417 1416 1416 1417 1420 1423 1425 1428 1429 1430 1432 1433 1435 1436 1438 1440 1443 1444 1447 1450 1453 1456 1458 1460 1462 1463 1465 1467 1469 1471 1472
1436 1433 1430 1428 1426 1424 1422 1420 1419 1417 1416 1414 1412 1410 1410 1411 1414 1417 1421 1424 1427 1429 1431 1434 1436 1438 1440 1443 1445 1448 1450 1452 1456 1458 1460 1462 1464 1465 1467 1467 1468 1470 1471
1426 1423 1421 1418 1417 1415 1413 1412 1411 1410 1409 1407 1406 1404 1404 1405 1408 1411 1416 1421 1425 1427 1430 1433 1435 1438 1441 1444 1447 1449 1451 1454 1458 1460 1462 1464 1465 1467 1467 1468 1468 1469 1470
1416 1413 1411 1409 1407 1406 1405 1404 1403 1402 1402 1401 1400 1399 1398 1399 1402 1406 1411 1417 1421 1426 1429 1432 1434 1438 1442 1445 1447 1450 1453 1456 1458 1461 1463 1465 1466 1467 1468 1469 1470 1471 1472
1404 1402 1400 1399 1397 1396 1395 1395 1394 1394 1394 1394 1394 1393 1393 1394 1396 1401 1406 1412 1418 1423 1426 1430 1434 1438 1442 1444 1447 1450 1454 1457 1459 1461 1463 1465 1467 1469 1471 1473 1474 1475 1476
1393 1391 1389 1388 1387 1386 1386 1385 1385 1386 1387 1387 1388 1387 1388 1389 1392 1397 1402 1409 1415 1420 1424 1429 1433 1437 1441 1444 1448 1451 1454 1456 1459 1461 1463 1466 1468 1470 1472 1474 1475 1476 1477
1381 1379 1378 1378 1377 1377 1376 1376 1376 1377 1378 1379 1380 1381 1382 1384 1386 1392 1399 1406 1412 1417 1423 1428 1432 1436 1440 1443 1446 1450 1453 1456 1458 1461 1464 1466 1469 1471 1473 1475 1476 1477 1478
1370 1368 1367 1367 1367 1367 1367 1368 1368 1369 1370 1371 1372 1373 1375 1378 1382 1387 1395 1403 1410 1416 1421 1426 1430 1434 1438 1442 1445 1449 1452 1455 1458 1461 1464 1467 1469 1471 1473 1475 1476 1478 1479
1358 1356 1356 1356 1356 1357 1358 1359 1360 1361 1362 1363 1364 1366 1369 1372 1377 1383 1392 1400 1407 1414 1419 1423 1428 1432 1436 1440 1444 1448 1451 1454 1458 1461 1464 1467 1469 1471 1473 1475 1477 1478 1479
1346 1345 1345 1345 1346 1347 1349 1350 1352 1353 1355 1356 1358 1359 1362 1366 1372 1380 1389 1397 1404 1410 1416 1421 1426 1430 1434 1439 1443 1447 1450 1454 1457 1460 1464 1466 1469 1471 1473 1475 1476 1477 1479
1335 1335 1336 1336 1337 1339 1340 1342 1344 1346 1348 1350 1352 1354 1357 1361 1367 1375 1385 1394 1402 1408 1414 1419 1423 1428 1433 1437 1441 1445 1449 1453 1456 1460 1463 1466 1468 1471 1473 1475 1476 1478 1479
1326 1326 1327 1328 1329 1331 1333 1335 1337 1339 1342 1344 1346 1349 1352 1357 1364 1372 1382 1391 1399 1405 1411 1416 1421 1426 1431 1435 1440 1444 1448 1452 1455 1459 1462 1465 1468 1470 1472 1474 1476 1477 1478
1319 1319 1320 1321 1323 1325 1327 1329 1331 1333 1336 1338 1341 1345 1349 1355 1363 1371 1380 1389 1396 1403 1409 1414 1419 1424 1429 1433 1438 1442 1446 1450 1454 1457 1461 1464 1467 1469 1471 1473 1474 1476 1476
1313 1314 1315 1317 1318 1320 1322 1324 1326 1328 1330 1334 1337 1341 1347 1354 1362 1371 1379 1387 1394 1401 1406 1412 1417 1422 1427 1431 1436 1440 1444 1448 1452 1455 1459 1462 1465 1467 1469 1471 1472 1473 1474
1309 1310 1312 1313 1315 1316 1318 1320 1321 1324 1327 1330 1335 1340 1346 1353 1361 1370 1378 1386 1393 1399 1404 1409 1415 1420 1424 1429 1433 1438 1442 1446 1450 1454 1457 1460 1463 1465 1467 1468 1469 1470 1471
1308 1309 1310 1312 1313 1314 1316 1318 1320 1322 1325 1330 1334 1340 1346 1354 1362 1370 1378 1385 1391 1397 1402 1407 1413 1418 1422 1426 1431 1436 1439 1443 1447 1451 1454 1457 1460 1462 1464 1465 1466 1467 1467
1308 1309 1310 1311 1312 1314 1315 1317 1319 1322 1326 1330 1335 1341 1348 1355 1362 1370 1377 1383 1390 1395 1400 1406 1410 1415 1420 1424 1429 1433 1436 1440 1444 1448 1451 1454 1457 1458 1460 1461 1462 1462 1462